sat.trackr.live / text

‹ back to catalog

ONEWEB-0654

NORAD 55816 · 2023-029W

PAYLOAD ACTIVE UNKNOWN

§ Identity

Operator
Country
UK
Launch date
2023-03-09
Launch site
AFETR
Launch vehicle
Mass (kg)
RCS (m²)

Purposes: comms

External: N2YO · Heavens-Above · Gunter

§ Orbital elements

Epoch: 2026-09-19T18:19:29.560512Z

Period
109.55 min
Inclination
87.8894°
Eccentricity
0.0002193
Mean motion
13.14503912 rev/d
Perigee alt
1,204.1 km
Apogee alt
1,207.4 km
Semi-major
7,583.9 km
B*
-1.2186e-4
RAAN
270.8414°
Arg perigee
96.7366°
Mean anomaly
263.4014°
Rev number
17,184

§ Raw data

ONEWEB-06541 55816U 23029W   26262.76353658 -.00000032  00000+0 -12186-3 0  99992 55816  87.8894 270.8414 0002193  96.7366 263.4014 13.14503912171849

JSON: /api/v1/satellites/55816 · /tle

For live sub-satellite position, see the globe view (requires WebGL).

§ Visibility from observer

Set your observer location to see the next 7 days of passes ≥ 10°. The values pass through the URL so the page stays shareable.

No JS? Fill the form by hand. The geolocation button needs JavaScript.